Weather History for Mason, MI

Change the Weather History Date:

Thursday, November 8, 2012

  Actual Average (KLAN) Record (KLAN)
Temperature  
Mean Temperature 37 °F 43 °F  
Max Temperature 50 °F 50 °F 71 °F (1915)
Min Temperature 24 °F 35 °F 11 °F (1991)
Degree Days  
Heating Degree Days 28 22  
Month to date heating degree days 169  
Since 1 July heating degree days 819  
Cooling Degree Days 0 0  
Month to date cooling degree days 0  
Year to date cooling degree days 625  
Moisture  
Dew Point 29 °F    
Average Humidity 78    
Maximum Humidity 96    
Minimum Humidity 47    
Precipitation  
Precipitation 0.00 in 0.09 in 1.70 in (1888)
Month to date precipitation 0.75  
Year to date precipitation 27.87  
Snow  
Snow 0.00 in 0.10 in 12.10 in (1921)
Month to date snowfall 0.4  
Since 1 July snowfall 0.8  
Since 1 September snowfall 0.8  
Snow Depth -    
Sea Level Pressure  
Sea Level Pressure 30.16 in    
Wind  
Wind Speed 0 mph (WSW)    
Max Wind Speed 6 mph    
Max Gust Speed -    
Visibility 7 miles    
Events      
T = Trace of Precipitation, MM = Missing Value Source: NWS Daily Summary

Daily Weather History Graph

Daily Weather History Graph

Search for Another Location

Airport:

Trip Planner

Search our weather history database for the weather conditions in past years. The results will help you decide how hot, cold, wet, or windy it might be!

Date:

Astronomy

Nov. 08, 2012 Rise Set
Actual Time 7:20 AM EST 5:21 PM EST
Civil Twilight 6:50 AM EST 5:51 PM EST
Nautical Twilight 6:17 AM EST 6:25 PM EST
Astronomical Twilight 5:44 AM EST 6:58 PM EST
Moon 1:07 AM EST (11/8) 2:08 PM EST (11/8)
Length of Visible Light 11h 00m
Length of Day
10h 00m
Waning Crescent, 33% of the Moon is Illuminated
Nov 8
Waning Crescent
Nov 13
New
Nov 20
First Quarter
Nov 28
Full
Dec 6
Last Quarter

Hourly Weather History & Observations

Time (EST) Temp. Windchill Dew Point Humidity Pressure Visibility Wind Dir Wind Speed Gust Speed Precip Events Conditions
12:12 AM 30.2 °F - 28.2 °F 92% 30.14 in 5.0 mi Calm Calm - N/A   Clear
12:32 AM 30.2 °F - 28.6 °F 94% 30.14 in 7.0 mi Calm Calm - N/A   Clear
12:52 AM 29.7 °F - 28.0 °F 94% 30.14 in 4.0 mi Calm Calm - N/A   Clear
1:12 AM 28.6 °F - 27.3 °F 95% 30.14 in 5.0 mi Calm Calm - N/A   Clear
1:33 AM 28.6 °F - 27.0 °F 94% 30.14 in 2.0 mi Calm Calm - N/A   Clear
1:52 AM 29.3 °F - 28.0 °F 95% 30.14 in 2.5 mi Calm Calm - N/A   Clear
2:12 AM 27.7 °F - 26.1 °F 94% 30.14 in 5.0 mi Calm Calm - N/A   Clear
2:33 AM 27.3 °F - 25.7 °F 94% 30.15 in 4.0 mi Calm Calm - N/A   Clear
2:52 AM 27.5 °F - 26.4 °F 96% 30.15 in 4.0 mi Calm Calm - N/A   Clear
3:12 AM 27.1 °F - 25.5 °F 94% 30.15 in 5.0 mi Calm Calm - N/A   Clear
3:32 AM 27.5 °F - 25.7 °F 93% 30.15 in 5.0 mi Calm Calm - N/A   Clear
3:52 AM 26.1 °F - 24.6 °F 94% 30.16 in 3.0 mi Calm Calm - N/A   Clear
4:12 AM 26.1 °F - 24.8 °F 95% 30.16 in 3.0 mi Calm Calm - N/A   Clear
4:32 AM 26.6 °F - 25.3 °F 95% 30.16 in 3.0 mi Calm Calm - N/A   Clear
4:52 AM 25.9 °F - 24.6 °F 95% 30.16 in 5.0 mi Calm Calm - N/A   Clear
5:12 AM 26.1 °F - 24.6 °F 94% 30.17 in 5.0 mi Calm Calm - N/A   Clear
5:32 AM 25.5 °F - 23.9 °F 94% 30.18 in 4.0 mi Calm Calm - N/A   Clear
5:52 AM 25.3 °F - 23.9 °F 94% 30.18 in 5.0 mi Calm Calm - N/A   Clear
6:12 AM 25.0 °F - 23.7 °F 95% 30.18 in 4.0 mi Calm Calm - N/A   Clear
6:32 AM 24.8 °F - 23.4 °F 94% 30.19 in 5.0 mi Calm Calm - N/A   Clear
6:52 AM 25.3 °F - 23.9 °F 94% 30.19 in 5.0 mi Calm Calm - N/A   Clear
7:12 AM 24.6 °F - 23.0 °F 94% 30.19 in 5.0 mi Calm Calm - N/A   Clear
7:52 AM 24.8 °F - 23.0 °F 93% 30.20 in 5.0 mi Calm Calm - N/A   Clear
8:12 AM 26.6 °F - 25.0 °F 94% 30.21 in 4.0 mi Calm Calm - N/A   Clear
8:32 AM 28.4 °F - 26.6 °F 93% 30.21 in 4.0 mi Calm Calm - N/A   Clear
8:52 AM 30.7 °F - 29.1 °F 94% 30.21 in 3.0 mi Calm Calm - N/A   Clear
9:13 AM 33.1 °F - 31.1 °F 92% 30.22 in 4.0 mi Calm Calm - N/A   Clear
9:32 AM 35.2 °F - 32.0 °F 88% 30.22 in 7.0 mi Calm Calm - N/A   Clear
9:52 AM 37.2 °F - 32.4 °F 83% 30.21 in 7.0 mi Calm Calm - N/A   Clear
10:13 AM 39.4 °F - 32.2 °F 75% 30.21 in 10.0 mi Calm Calm - N/A   Clear
10:32 AM 40.3 °F - 32.0 °F 72% 30.21 in 7.0 mi Calm Calm - N/A   Clear
10:52 AM 41.0 °F - 31.5 °F 69% 30.22 in 10.0 mi Calm Calm - N/A   Clear
11:13 AM 42.3 °F 40.5 °F 31.8 °F 67% 30.21 in 10.0 mi ESE 3.5 mph - N/A   Clear
11:32 AM 43.2 °F - 31.6 °F 64% 30.20 in 10.0 mi Calm Calm - N/A   Clear
11:52 AM 44.1 °F - 31.6 °F 62% 30.19 in 10.0 mi Calm Calm - N/A   Clear
12:13 PM 45.0 °F - 31.6 °F 60% 30.18 in 10.0 mi Calm Calm - N/A   Clear
12:32 PM 45.9 °F - 31.3 °F 57% 30.17 in 10.0 mi Calm Calm - N/A   Clear
12:52 PM 47.1 °F - 30.9 °F 53% 30.16 in 10.0 mi Calm Calm - N/A   Clear
1:13 PM 47.8 °F - 31.6 °F 53% 30.16 in 10.0 mi Calm Calm - N/A   Clear
1:32 PM 47.7 °F - 31.3 °F 53% 30.16 in 10.0 mi South 3.5 mph - N/A   Clear
1:52 PM 48.7 °F - 31.1 °F 51% 30.15 in 10.0 mi Calm Calm - N/A   Clear
2:13 PM 49.3 °F - 31.1 °F 50% 30.14 in 10.0 mi Calm Calm - N/A   Clear
2:32 PM 49.1 °F - 30.7 °F 49% 30.14 in 10.0 mi Calm Calm - N/A   Clear
2:52 PM 50.2 °F - 30.7 °F 47% 30.14 in 10.0 mi Calm Calm - N/A   Clear
3:13 PM 50.2 °F - 30.7 °F 47% 30.13 in 10.0 mi Calm Calm - N/A   Clear
3:32 PM 50.2 °F - 30.6 °F 47% 30.13 in 10.0 mi West 5.8 mph - N/A   Scattered Clouds
3:52 PM 48.6 °F - 30.2 °F 49% 30.13 in 10.0 mi West 3.5 mph - N/A   Scattered Clouds
4:13 PM 47.5 °F - 30.9 °F 53% 30.13 in 10.0 mi West 4.6 mph - N/A   Clear
4:32 PM 46.8 °F - 31.6 °F 56% 30.13 in 10.0 mi West 3.5 mph - N/A   Scattered Clouds
4:53 PM 46.4 °F - 31.6 °F 56% 30.13 in 10.0 mi Calm Calm - N/A   Scattered Clouds
5:13 PM 45.9 °F - 31.5 °F 57% 30.13 in 10.0 mi Calm Calm - N/A   Scattered Clouds
5:32 PM 45.0 °F - 31.5 °F 59% 30.13 in 10.0 mi Calm Calm - N/A   Scattered Clouds
5:53 PM 42.6 °F - 31.8 °F 66% 30.14 in 10.0 mi Calm Calm - N/A   Overcast
6:13 PM 42.8 °F - 31.8 °F 65% 30.14 in 10.0 mi Calm Calm - N/A   Overcast
6:32 PM 41.2 °F - 31.8 °F 69% 30.14 in 10.0 mi Calm Calm - N/A   Mostly Cloudy
6:53 PM 40.3 °F - 31.8 °F 72% 30.14 in 10.0 mi Calm Calm - N/A   Clear
7:13 PM 38.5 °F - 31.8 °F 77% 30.14 in 10.0 mi Calm Calm - N/A   Clear
7:32 PM 37.8 °F - 31.5 °F 78% 30.14 in 10.0 mi Calm Calm - N/A   Clear
7:53 PM 39.2 °F - 31.1 °F 73% 30.13 in 10.0 mi Calm Calm - N/A   Clear
8:13 PM 37.8 °F - 31.1 °F 77% 30.12 in 10.0 mi Calm Calm - N/A   Clear
8:32 PM 36.3 °F - 30.7 °F 80% 30.12 in 10.0 mi Calm Calm - N/A   Clear
8:53 PM 35.1 °F - 30.6 °F 84% 30.11 in 10.0 mi Calm Calm - N/A   Clear
9:12 PM 34.9 °F - 30.9 °F 85% 30.12 in 10.0 mi Calm Calm - N/A   Clear
9:32 PM 34.9 °F - 30.9 °F 85% 30.12 in 10.0 mi Calm Calm - N/A   Clear
9:53 PM 34.9 °F - 30.7 °F 85% 30.12 in 7.0 mi Calm Calm - N/A   Clear
10:12 PM 34.5 °F - 30.2 °F 84% 30.12 in 7.0 mi Calm Calm - N/A   Clear
10:32 PM 33.8 °F - 29.8 °F 85% 30.13 in 7.0 mi Calm Calm - N/A   Clear
10:53 PM 36.5 °F - 31.3 °F 81% 30.13 in 7.0 mi Calm Calm - N/A   Clear
11:12 PM 36.7 °F - 31.5 °F 81% 30.13 in 7.0 mi Calm Calm - N/A   Clear
11:33 PM 36.7 °F - 31.5 °F 81% 30.12 in 7.0 mi Calm Calm - N/A   Clear
11:52 PM 36.3 °F - 31.5 °F 83% 30.12 in 7.0 mi Calm Calm - N/A   Clear